| time (UTC) | temp F | wind direction | speed MPH | gust MPH | rain 1hr in | rain 24hr in | rain mn in | humidity % | barometer mb |
| 20260510130032 | 40 | 157 | 0.0 | 0.0 | 0.00 | 0.00 | 0.00 | 90 | 1017.1 |
| 20260510124529 | 40 | 157 | 0.0 | 1.0 | 0.00 | 0.00 | 0.00 | 89 | 1017.1 |
| 20260510123034 | 40 | 157 | 0.0 | 1.0 | 0.00 | 0.00 | 0.00 | 88 | 1017.3 |
| 20260510120105 | 41 | 157 | 0.0 | 1.0 | 0.00 | 0.00 | 0.00 | 85 | 1017.2 |
| 20260510114530 | 42 | 177 | 0.0 | 2.0 | 0.00 | 0.00 | 0.00 | 85 | 1017.3 |
| 20260510113103 | 42 | 230 | 0.0 | 4.0 | 0.00 | 0.00 | 0.00 | 83 | 1017.1 |
| 20260510111605 | 42 | 157 | 0.0 | 2.0 | 0.00 | 0.00 | 0.00 | 82 | 1017.0 |
| 20260510110032 | 43 | 196 | 0.0 | 2.0 | 0.00 | 0.00 | 0.00 | 81 | 1016.9 |
| 20260510104605 | 43 | 202 | 0.0 | 0.0 | 0.00 | 0.00 | 0.00 | 80 | 1017.3 |
| 20260510103031 | 44 | 214 | 0.0 | 1.0 | 0.00 | 0.00 | 0.00 | 79 | 1017.4 |
| 20260510101528 | 45 | 121 | 0.0 | 3.0 | 0.00 | 0.00 | 0.00 | 77 | 1017.2 |
| 20260510100032 | 45 | 90 | 0.0 | 0.0 | 0.00 | 0.00 | 0.00 | 76 | 1017.2 |
| 20260510094531 | 47 | 90 | 0.0 | 0.0 | 0.00 | 0.00 | 0.00 | 71 | 1017.1 |
| 20260510093031 | 49 | 90 | 0.0 | 1.0 | 0.00 | 0.00 | 0.00 | 67 | 1017.2 |
| 20260510091643 | 50 | 108 | 0.0 | 3.0 | 0.00 | 0.00 | 0.00 | 68 | 1017.3 |
| 20260510090032 | 47 | 135 | 0.0 | 1.0 | 0.00 | 0.00 | 0.00 | 73 | 1017.4 |
| 20260510084532 | 46 | 135 | 0.0 | 2.0 | 0.00 | 0.00 | 0.00 | 75 | 1017.5 |
| 20260510083029 | 46 | 135 | 0.0 | 0.0 | 0.00 | 0.00 | 0.00 | 77 | 1017.7 |
| 20260510081531 | 44 | 135 | 0.0 | 2.0 | 0.00 | 0.00 | 0.00 | 82 | 1017.7 |
| 20260510080028 | 44 | 135 | 0.0 | 0.0 | 0.00 | 0.00 | 0.00 | 79 | 1017.8 |
| 20260510074532 | 45 | 135 | 0.0 | 2.0 | 0.00 | 0.00 | 0.00 | 78 | 1017.8 |
| 20260510073105 | 45 | 135 | 0.0 | 2.0 | 0.00 | 0.00 | 0.00 | 79 | 1017.9 |
| 20260510071530 | 45 | 135 | 0.0 | 2.0 | 0.00 | 0.00 | 0.00 | 79 | 1017.9 |
| 20260510070030 | 47 | 142 | 0.0 | 3.0 | 0.00 | 0.00 | 0.00 | 76 | 1017.9 |
| 20260510064529 | 46 | 157 | 0.0 | 1.0 | 0.00 | 0.00 | 0.00 | 76 | 1017.8 |
| 20260510063107 | 47 | 157 | 0.0 | 0.0 | 0.00 | 0.00 | 0.00 | 75 | 1017.7 |
| 20260510061530 | 47 | 157 | 0.0 | 2.0 | 0.00 | 0.00 | 0.00 | 75 | 1017.7 |
| 20260510060145 | 48 | 157 | 0.0 | 3.0 | 0.00 | 0.00 | 0.00 | 75 | 1017.7 |
| 20260510054529 | 49 | 157 | 0.0 | 0.0 | 0.00 | 0.00 | 0.00 | 73 | 1017.6 |
| 20260510053106 | 50 | 157 | 0.0 | 2.0 | 0.00 | 0.00 | 0.00 | 72 | 1017.6 |
| 20260510051530 | 51 | 157 | 0.0 | 2.0 | 0.00 | 0.00 | 0.00 | 69 | 1017.5 |
| 20260510050031 | 52 | 187 | 0.0 | 3.0 | 0.00 | 0.00 | 0.00 | 72 | 1017.4 |
| 20260510044530 | 53 | 163 | 0.0 | 3.0 | 0.00 | 0.00 | 0.00 | 69 | 1017.4 |
| 20260510043033 | 55 | 125 | 0.0 | 3.0 | 0.00 | 0.00 | 0.00 | 65 | 1017.4 |
| 20260510040106 | 58 | 92 | 0.0 | 4.0 | 0.00 | 0.00 | 0.00 | 64 | 1017.1 |
| 20260510034531 | 60 | 173 | 0.0 | 4.0 | 0.00 | 0.00 | 0.00 | 63 | 1017.0 |
| 20260510033029 | 62 | 112 | 0.0 | 2.0 | 0.00 | 0.00 | 0.00 | 63 | 1016.9 |
| 20260510031542 | 63 | 112 | 0.0 | 0.0 | 0.00 | 0.00 | 0.00 | 63 | 1016.9 |
| 20260510031531 | 64 | 112 | 0.0 | 2.0 | 0.00 | 0.00 | 0.00 | 62 | 1016.9 |
| 20260510024532 | 65 | 112 | 0.0 | 4.0 | 0.00 | 0.00 | 0.00 | 61 | 1017.0 |
| 20260510014531 | 71 | 135 | 0.0 | 1.0 | 0.00 | 0.00 | 0.00 | 43 | 1017.1 |
| 20260510013105 | 71 | 232 | 0.0 | 4.0 | 0.00 | 0.00 | 0.00 | 39 | 1017.1 |
| 20260510011531 | 72 | 286 | 1.0 | 5.0 | 0.00 | 0.00 | 0.00 | 35 | 1017.2 |
| 20260510010031 | 73 | 288 | 4.0 | 7.0 | 0.00 | 0.00 | 0.00 | 34 | 1017.3 |
| 20260510004529 | 74 | 282 | 5.0 | 8.0 | 0.00 | 0.00 | 0.00 | 33 | 1017.2 |
| 20260510003031 | 74 | 276 | 6.0 | 10.0 | 0.00 | 0.00 | 0.00 | 34 | 1017.2 |
| 20260510001530 | 73 | 273 | 6.0 | 11.0 | 0.00 | 0.00 | 0.00 | 35 | 1017.3 |
| 20260509234531 | 73 | 287 | 6.0 | 11.0 | 0.00 | 0.00 | 0.00 | 39 | 1017.7 |
| 20260509233031 | 73 | 286 | 7.0 | 13.0 | 0.00 | 0.00 | 0.00 | 40 | 1017.8 |
| 20260509231531 | 73 | 287 | 8.0 | 13.0 | 0.00 | 0.00 | 0.00 | 40 | 1018.0 |
| 20260509230027 | 73 | 290 | 8.0 | 13.0 | 0.00 | 0.00 | 0.00 | 41 | 1018.3 |
| 20260509223103 | 72 | 286 | 7.0 | 13.0 | 0.00 | 0.00 | 0.00 | 43 | 1018.8 |
| 20260509221531 | 72 | 283 | 8.0 | 14.0 | 0.00 | 0.00 | 0.00 | 43 | 1019.0 |
| 20260509214532 | 71 | 285 | 7.0 | 12.0 | 0.00 | 0.00 | 0.00 | 43 | 1019.4 |
| 20260509213030 | 70 | 282 | 8.0 | 14.0 | 0.00 | 0.00 | 0.00 | 45 | 1019.5 |
| 20260509211530 | 70 | 296 | 7.0 | 13.0 | 0.00 | 0.00 | 0.00 | 47 | 1019.7 |
| 20260509210030 | 69 | 284 | 8.0 | 14.0 | 0.00 | 0.00 | 0.00 | 50 | 1019.9 |
| 20260509204532 | 68 | 295 | 8.0 | 12.0 | 0.00 | 0.00 | 0.00 | 51 | 1020.0 |
| 20260509203030 | 68 | 288 | 8.0 | 13.0 | 0.00 | 0.00 | 0.00 | 53 | 1020.2 |
| 20260509201531 | 67 | 289 | 7.0 | 12.0 | 0.00 | 0.00 | 0.00 | 55 | 1020.4 |
| 20260509200030 | 66 | 282 | 7.0 | 12.0 | 0.00 | 0.00 | 0.00 | 56 | 1020.7 |
| 20260509193107 | 64 | 296 | 6.0 | 12.0 | 0.00 | 0.00 | 0.00 | 59 | 1021.1 |
| 20260509190030 | 63 | 307 | 6.0 | 11.0 | 0.00 | 0.00 | 0.00 | 61 | 1021.4 |
| 20260509184531 | 63 | 332 | 4.0 | 11.0 | 0.00 | 0.00 | 0.00 | 60 | 1021.5 |
| 20260509183103 | 63 | 331 | 4.0 | 11.0 | 0.00 | 0.00 | 0.00 | 60 | 1021.7 |
| 20260509180028 | 61 | 282 | 5.0 | 8.0 | 0.00 | 0.00 | 0.00 | 60 | 1021.8 |
| 20260509174529 | 60 | 333 | 5.0 | 9.0 | 0.00 | 0.00 | 0.00 | 64 | 1021.8 |
| 20260509173030 | 58 | 5 | 6.0 | 10.0 | 0.00 | 0.00 | 0.00 | 65 | 1022.0 |
| 20260509171604 | 58 | 358 | 6.0 | 10.0 | 0.00 | 0.00 | 0.00 | 65 | 1022.1 |
| 20260509164532 | 58 | 2 | 4.0 | 10.0 | 0.00 | 0.00 | 0.00 | 65 | 1022.3 |
| 20260509163031 | 57 | 343 | 4.0 | 9.0 | 0.00 | 0.00 | 0.00 | 67 | 1022.3 |
| 20260509161603 | 57 | 345 | 4.0 | 8.0 | 0.00 | 0.00 | 0.00 | 69 | 1022.4 |
| 20260509160030 | 57 | 19 | 4.0 | 7.0 | 0.00 | 0.00 | 0.00 | 64 | 1022.4 |
| 20260509154529 | 58 | 54 | 1.0 | 6.0 | 0.00 | 0.00 | 0.00 | 60 | 1022.5 |
| 20260509153030 | 57 | 22 | 0.0 | 1.0 | 0.00 | 0.00 | 0.00 | 65 | 1022.4 |
| 20260509151530 | 54 | 22 | 0.0 | 1.0 | 0.00 | 0.00 | 0.00 | 71 | 1022.4 |
| 20260509150030 | 52 | 291 | 0.0 | 3.0 | 0.00 | 0.00 | 0.00 | 75 | 1022.3 |
| 20260509144532 | 49 | 265 | 0.0 | 0.0 | 0.00 | 0.00 | 0.00 | 84 | 1022.4 |
| 20260509143032 | 47 | 247 | 0.0 | 0.0 | 0.00 | 0.00 | 0.00 | 94 | 1022.4 |
| 20260509141532 | 42 | 247 | 0.0 | 0.0 | 0.00 | 0.00 | 0.00 | 96 | 1022.3 |
| 20260509140107 | 40 | 247 | 0.0 | 0.0 | 0.00 | 0.00 | 0.00 | 96 | 1022.2 |
| 20260509134532 | 38 | 247 | 0.0 | 0.0 | 0.00 | 0.00 | 0.00 | 96 | 1022.1 |
| 20260509133029 | 37 | 210 | 0.0 | 2.0 | 0.00 | 0.00 | 0.00 | 95 | 1022.1 |
| 20260509131530 | 37 | 202 | 0.0 | 1.0 | 0.00 | 0.00 | 0.00 | 95 | 1022.0 |